Location: Newark
(36.0797°N, 3.9744°E)
Time: 05:25:55
(UTC+00:00)

Vanguard 2 - Pass Details

Date: 13 December 2019
Orbit: 553 x 2938 km, 32.9° (Epoch: 19 January)

Event Time Altitude Azimuth Distance (km) Brightness Sun altitude
Exits shadow 04:43:25 30° 271° (W) 4,282 10.7 -24.0°
Maximum altitude 04:54:19 69° 199° (SSW) 2,979 10.3 -21.9°
Drops below altitude 10° 05:09:15 10° 120° (ESE) 4,850 12.7 -18.9°
Sets 05:12:31 0° 117° (ESE) 5,594 13.5 -18.3°
